Weather History for Aspen, CO

Change the Weather History Date:

Wednesday, April 17, 2013

  Actual Average Record
Temperature  
Mean Temperature 22 °F 40 °F  
Max Temperature 28 °F 53 °F 70 °F (1987)
Min Temperature 15 °F 28 °F 12 °F (1993)
Degree Days  
Heating Degree Days 43 25  
Month to date heating degree days 492 458  
Since 1 July heating degree days 7564 7833  
Cooling Degree Days 0 0  
Month to date cooling degree days 0 0  
Year to date cooling degree days 0 0  
Moisture  
Dew Point 18 °F    
Average Humidity 84    
Maximum Humidity 100    
Minimum Humidity 68    
Precipitation  
Precipitation 0.22 in 0.07 in 0.40 in (1988)
Month to date precipitation 2.07 0.93  
Year to date precipitation 4.28 4.49  
Sea Level Pressure  
Sea Level Pressure 29.79 in    
Wind  
Wind Speed 6 mph (North)    
Max Wind Speed 18 mph    
Max Gust Speed 22 mph    
Visibility 4 miles    
Events Fog , Snow    
T = Trace of Precipitation, MM = Missing Value Source: NWS Daily Summary

Daily Weather History Graph

Daily Weather History Graph

Search for Another Location

Airport:

Trip Planner

Search our weather history database for the weather conditions in past years. The results will help you decide how hot, cold, wet, or windy it might be!

Date:

Astronomy

Apr. 17, 2013 Rise Set
Actual Time 6:27 AM MDT 7:47 PM MDT
Civil Twilight 5:59 AM MDT 8:15 PM MDT
Nautical Twilight 5:26 AM MDT 8:48 PM MDT
Astronomical Twilight 4:51 AM MDT 9:23 PM MDT
Moon 11:44 AM MDT (4/17) 1:26 AM MDT (4/17)
Length of Visible Light 14h 15m
Length of Day
13h 20m
Waxing Crescent, 43% of the Moon is Illuminated
Apr 17
Waxing Crescent
Apr 18
First Quarter
Apr 25
Full
May 2
Last Quarter
May 9
New

Hourly Weather History & Observations

Time (MDT) Temp. Windchill Dew Point Humidity Pressure Visibility Wind Dir Wind Speed Gust Speed Precip Events Conditions
12:53 AM 28.0 °F 21.7 °F 24.1 °F 85% 29.62 in 10.0 mi NNW 5.8 mph - N/A   Overcast
1:53 AM 27.0 °F 20.5 °F 24.1 °F 89% 29.60 in 10.0 mi NNW 5.8 mph - N/A   Overcast
2:53 AM 26.1 °F 19.4 °F 23.0 °F 88% 29.60 in 9.0 mi North 5.8 mph - 0.00 in   Overcast
3:25 AM 26.6 °F 19.1 °F 23.0 °F 86% 29.75 in 10.0 mi NW 6.9 mph - N/A   Overcast
3:49 AM 26.6 °F 20.0 °F 23.0 °F 86% 29.74 in 1.8 mi NNW 5.8 mph - 0.00 in Snow Light Snow
3:53 AM 26.1 °F 20.5 °F 23.0 °F 88% 29.57 in 1.2 mi NW 4.6 mph - 0.00 in Snow Light Snow
4:05 AM 24.8 °F - 23.0 °F 93% 29.74 in 1.2 mi North - - 0.00 in Snow Light Snow
4:07 AM 24.8 °F - 23.0 °F 93% 29.74 in - North - - 0.00 in   Unknown
4:25 AM 24.8 °F 16.9 °F 23.0 °F 93% 29.73 in 1.0 mi NW 6.9 mph - 0.00 in Snow Light Snow
4:32 AM 24.8 °F 17.9 °F 23.0 °F 93% 29.73 in 0.8 mi NNW 5.8 mph - 0.01 in Snow Light Snow
4:39 AM 24.8 °F 19.1 °F 23.0 °F 93% 29.73 in 2.0 mi NW 4.6 mph - 0.01 in Snow Light Snow
4:41 AM 24.8 °F 19.1 °F 23.0 °F 93% 29.72 in 3.0 mi NNW 4.6 mph - 0.01 in Snow Light Snow
4:53 AM 24.1 °F 19.7 °F 21.9 °F 91% 29.64 in 7.0 mi North 3.5 mph - 0.01 in   Mostly Cloudy
5:01 AM 24.8 °F - 23.0 °F 93% 29.72 in 10.0 mi Calm Calm - N/A   Mostly Cloudy
5:09 AM 23.0 °F 17.0 °F 21.2 °F 93% 29.72 in 10.0 mi NW 4.6 mph - N/A   Mostly Cloudy
5:14 AM 23.0 °F 17.0 °F 21.2 °F 93% 29.71 in 10.0 mi North 4.6 mph - N/A   Mostly Cloudy
5:35 AM 24.8 °F 19.1 °F 21.2 °F 86% 29.71 in 8.0 mi North 4.6 mph - N/A   Overcast
5:53 AM 24.1 °F 17.0 °F 21.9 °F 91% 29.63 in 10.0 mi NNW 5.8 mph - N/A   Overcast
6:34 AM 24.8 °F 20.5 °F 21.2 °F 86% 29.70 in 6.0 mi NNW 3.5 mph - 0.00 in Snow Light Snow
6:46 AM 24.8 °F 16.9 °F 21.2 °F 86% 29.69 in 1.8 mi NNW 6.9 mph - 0.00 in Snow Light Snow
6:53 AM 24.1 °F 15.2 °F 21.9 °F 91% 29.62 in 0.5 mi NW 8.1 mph - 0.00 in Fog , Snow Snow
6:55 AM 24.8 °F 15.3 °F 21.2 °F 86% 29.69 in 0.5 mi North 9.2 mph - 0.00 in Fog , Snow Snow
8:14 AM 24.8 °F 20.5 °F 21.2 °F 86% 29.68 in 1.0 mi ESE 3.5 mph - 0.01 in Snow Light Snow
8:36 AM 24.8 °F 20.5 °F 23.0 °F 93% 29.69 in 0.5 mi South 3.5 mph - 0.01 in Fog , Snow Snow
8:53 AM 25.0 °F - 24.1 °F 96% 29.61 in 0.2 mi Calm Calm - 0.04 in Fog , Snow Heavy Snow
9:18 AM 26.6 °F 20.0 °F 24.8 °F 93% 29.66 in 1.0 mi NNW 5.8 mph - 0.01 in Snow Light Snow
9:22 AM 26.6 °F 20.0 °F 24.8 °F 93% 29.66 in 2.0 mi North 5.8 mph - 0.01 in Snow Light Snow
9:53 AM 26.1 °F 18.4 °F 23.0 °F 88% 29.60 in 3.0 mi North 6.9 mph - 0.01 in Snow Light Snow
10:18 AM 24.8 °F 12.4 °F 21.2 °F 86% 29.68 in 0.5 mi North 15.0 mph - 0.00 in Fog , Snow Snow
10:53 AM 21.9 °F 8.7 °F 18.0 °F 85% 29.68 in 1.0 mi North 15.0 mph 21.9 mph 0.01 in Snow Light Snow
11:43 AM 19.4 °F 8.6 °F 17.6 °F 93% 29.77 in 0.2 mi North 9.2 mph - 0.00 in Fog , Snow Heavy Snow
11:53 AM 19.9 °F 9.3 °F 17.1 °F 89% 29.75 in 0.2 mi North 9.2 mph - 0.01 in Fog , Snow Heavy Snow
12:11 PM 19.4 °F 10.4 °F 15.8 °F 86% 29.78 in 1.0 mi North 6.9 mph - 0.01 in Snow Light Snow
12:53 PM 21.9 °F 14.5 °F 17.1 °F 82% 29.78 in 1.0 mi NNW 5.8 mph - 0.02 in Snow Light Snow
12:55 PM 21.2 °F 14.9 °F 17.6 °F 86% 29.79 in 0.8 mi North 4.6 mph - 0.00 in Snow Light Snow
1:45 PM 21.2 °F 13.6 °F 17.6 °F 86% 29.80 in 1.0 mi North 5.8 mph - 0.01 in Snow Light Snow
1:53 PM 21.9 °F 14.5 °F 17.1 °F 82% 29.80 in 1.0 mi North 5.8 mph - 0.01 in Snow Light Snow
2:53 PM 23.0 °F 17.0 °F 18.0 °F 81% 29.81 in 1.0 mi NNE 4.6 mph - 0.01 in Snow Light Snow
3:01 PM 23.0 °F 15.8 °F 17.6 °F 80% 29.82 in 2.0 mi NNE 5.8 mph - 0.00 in Snow Light Snow
3:11 PM 24.8 °F 15.3 °F 17.6 °F 74% 29.83 in 4.0 mi North 9.2 mph - 0.00 in Snow Light Snow
3:53 PM 23.0 °F 13.9 °F 16.0 °F 74% 29.82 in 4.0 mi North 8.1 mph - 0.00 in Snow Light Snow
4:53 PM 25.0 °F 19.3 °F 17.1 °F 72% 29.83 in 6.0 mi North 4.6 mph - 0.00 in Snow Light Snow
5:32 PM 24.8 °F 14.0 °F 15.8 °F 69% 29.85 in 7.0 mi NNW 11.5 mph 17.3 mph 0.00 in Snow Light Snow
5:53 PM 23.0 °F 10.6 °F 14.0 °F 68% 29.86 in 7.0 mi NNW 13.8 mph - 0.00 in Snow Light Snow
6:41 PM 21.2 °F 12.6 °F 14.0 °F 74% 29.88 in 10.0 mi North 6.9 mph - 0.00 in   Mostly Cloudy
6:53 PM 21.9 °F 13.4 °F 12.9 °F 68% 29.90 in 10.0 mi North 6.9 mph - 0.00 in   Mostly Cloudy
7:53 PM 19.9 °F 8.6 °F 12.0 °F 71% 29.94 in 7.0 mi NNW 10.4 mph - 0.00 in Snow Light Snow
8:51 PM 17.6 °F 7.3 °F 12.2 °F 79% 29.94 in 1.8 mi North 8.1 mph - 0.00 in Snow Light Snow
8:53 PM 18.0 °F 7.7 °F 12.9 °F 81% 29.97 in 1.8 mi North 8.1 mph - 0.00 in Snow Light Snow
9:38 PM 17.6 °F 12.3 °F 12.2 °F 79% 29.96 in 3.0 mi North 3.5 mph - 0.00 in Snow Light Snow
9:53 PM 17.1 °F - 12.9 °F 84% 30.00 in 5.0 mi Calm Calm - 0.00 in   Overcast
10:02 PM 17.6 °F 12.3 °F 12.2 °F 79% 29.97 in 3.0 mi North 3.5 mph - 0.00 in Snow Light Snow
10:12 PM 17.6 °F 12.3 °F 12.2 °F 79% 29.97 in 2.0 mi North 3.5 mph - 0.00 in Snow Light Snow
10:20 PM 17.6 °F 12.3 °F 12.2 °F 79% 29.97 in 2.0 mi North 3.5 mph - 0.00 in Snow Light Snow
10:30 PM 15.8 °F - 12.2 °F 86% 29.97 in 1.2 mi Calm Calm - 0.00 in Snow Light Snow
10:53 PM 16.0 °F - 12.9 °F 88% 30.04 in 3.0 mi Calm Calm - 0.00 in Snow Light Snow
11:05 PM 17.6 °F - 12.2 °F 79% 29.98 in 2.0 mi Calm Calm - 0.01 in Snow Light Snow
11:11 PM 15.8 °F 10.2 °F 12.2 °F 86% 29.97 in 1.8 mi North 3.5 mph - 0.01 in Snow Light Snow
11:18 PM 15.8 °F - 12.2 °F 86% 29.98 in 2.0 mi Calm Calm - 0.01 in Snow Light Snow
11:32 PM 15.8 °F - 12.2 °F 86% 29.98 in 3.0 mi Calm Calm - 0.01 in Snow Light Snow
11:44 PM 15.8 °F 8.6 °F 10.4 °F 79% 29.98 in 3.0 mi North 4.6 mph - 0.01 in Snow Light Snow
11:53 PM 16.0 °F 7.4 °F 10.0 °F 77% 30.06 in 5.0 mi North 5.8 mph - 0.01 in Snow Light Snow